{"data":{"norad_id":52501,"epoch":"2026-09-20T04:00:03.000096Z","epoch_age_seconds":92061,"freshness":"FRESH","line1":"1 52501U 22049BC  26263.16670139 -.00021367  00000+0 -62300-3 0  9996","line2":"2 52501  53.1599 245.6306 0001386  88.4732 304.4655 15.34400443  5867","mean_motion":15.34400443,"eccentricity":0.0001386,"inclination_deg":53.1599,"raan_deg":245.6306,"arg_perigee_deg":88.4732,"mean_anomaly_deg":304.4655,"bstar":-0.000623,"rev_number":586,"period_min":93.84773098635,"perigee_km":461.75378324326,"apogee_km":463.65006379286,"semimajor_km":6840.8389235181,"source":"CELESTRAK","updated_at":"2026-09-20T09:00:40.057259Z"}}